www.pogodaiklimat.ru

Погода и климат >> Архив погоды >> Узбекистан >> Алмалык


ПОГОДА в Алмалыке

  • Прогноз погоды в Алмалыке
  • Монитор погоды в Алмалыке

АРХИВ ПОГОДЫ в Алмалыке

Время (UTC), дата Ветер
(напр.,м/с)
 
Видим.   Явления Облачность Т
(С)
Тd
(С)
f
(%)
Тe
(С)
Тes
(С)
Комфортность P
(гПа)
Po
(гПа)
Тmin
(С)
Tmax
(С)
R
(мм)
R24
(мм)
S
(см)
03 11.09 В 4 50 км ясно +15.1 +6.7 57 +14 +16 1021.2 961.9
06 11.09 С 1 50 км ясно +21.8 +5.3 34 +22 +37 комфорт 1019.7 961.9 +10.6
09 11.09 СЗ 3 50 км ясно +23.8 +5.1 30 +24 +33 комфорт 1018.9 961.5
12 11.09 СЗ 4 50 км ясно +24.4 +3.4 26 +24 +25 комфорт 1019.6 962.3
15 11.09 Ю 1 н/о ясно +18.7 +7.3 47 +20 +20 1021.1 962.6 +24.8
21 11.09 В 2 н/о ясно +14.0 +6.8 62 +14 +14 1019.7 960.3
03 12.09 В 3 50 км ясно +15.6 +5.8 52 +15 +17 1019.4 960.4
06 12.09 З 2 50 км 1/1 1000 м
[Cu hum]
+23.2 +5.6 32 +24 +34 комфорт 1018.2 960.6 +11.7
09 12.09 ЮЗ 1 50 км 3/1 1000 м
[Cu hum Ci fib]
+25.1 +6.4 30 +25 +37 комфорт 1016.1 959.0
12 12.09 СЗ 2 50 км 3/0
[Ci fib]
+26.0 +4.6 25 +25 +27 комфорт 1015.0 958.2
15 12.09 ЮВ 1 н/о ясно +19.6 +9.4 52 +22 +22 комфорт 1016.2 958.2 +26.4
18 12.09 В 2 н/о ясно +15.9 +7.7 58 +16 +16 1017.0 958.2 +26.4
21 12.09 В 3 н/о ясно +15.0 +6.4 56 +14 +14 1017.1 958.1
00 13.09 СВ 3 н/о ясно +13.3 +6.2 62 +12 +12 1016.6 957.3
03 13.09 В 2 50 км 4/0
[Ci fib]
+16.7 +6.8 52 +17 +19 1016.5 957.9
06 13.09 СВ 2 50 км 4/4 1000 м
[Cu hum]
+23.4 +6.2 33 +24 +31 комфорт 1015.6 958.3 +12.4
09 13.09 В 3 20 км 3/0
[Ci fib]
+26.8 +2.1 20 +25 +34 комфорт 1014.2 957.5
12 13.09 СЗ 3 20 км 5/3 1000 м
[Cu hum Ci fib]
+27.5 +4.6 23 +26 +27 жарко 1013.4 956.9
15 13.09 ЮВ 1 н/о ясно +20.9 +9.0 46 +23 +23 комфорт 1015.1 957.4 +28.1
18 13.09 В 3 н/о ясно +16.8 +7.4 54 +17 +17 1015.9 957.4 +28.1
21 13.09 В 5 н/о ясно +17.2 +5.5 46 +17 +17 1014.9 956.4
00 14.09 В 5 н/о ясно +16.3 +3.8 43 +15 +15 1014.5 955.6
03 14.09 В 1 20 км 3/0
[Ac trans]
+17.0 +6.7 51 +18 +20 1014.9 956.5
06 14.09 СЗ 2 4000 м дым 8/0
[Ac trans]
+26.0 +5.3 26 +25 +31 комфорт 1013.4 956.7 +14.1
09 14.09 СЗ 2 20 км 3/0
[Ac trans]
+27.8 +4.8 23 +27 +36 жарко 1012.2 956.0
12 14.09 З 4 20 км 8/0
[Ac trans Ci fib]
+27.1 +4.9 24 +26 +27 жарко 1012.2 955.7
15 14.09 З 3 н/о 10/10 600 м
[Cb cap]
+23.8 +9.8 41 +25 +25 комфорт 1014.1 957.0 +28.5
18 14.09 В 3 н/о {ливн. осадки} 10/10 600 м
[Cb cap]
+22.1 +7.0 38 +23 +23 комфорт 1014.0 956.5 +28.5
21 14.09 В 3 н/о 8/8 600 м
[Sc]
+19.3 +9.0 51 +20 +20 1013.7 955.7
00 15.09 Ю 2 н/о 8/0
[Ac lent]
+18.3 +9.7 57 +19 +19 1014.2 956.0
03 15.09 штиль 0 50 км 9/8 600 м
[Sc Ac trans]
+18.1 +12.3 69 +18 +19 1014.7 956.5
06 15.09 СЗ 2 20 км 9/8 600 м
[Sc Ac trans]
+23.5 +8.8 39 +24 +26 комфорт 1014.9 957.6 +16.5 0.0
09 15.09 СЗ 4 20 км 9/8 600 м
[Cb cap Ac trans]
+23.8 +6.2 32 +24 +25 комфорт 1015.2 958.0
12 15.09 штиль 0 50 км 9/9 600 м
[Cb cap]
+23.6 +9.9 42 +25 +25 комфорт 1016.1 958.8
15 15.09 В 2 н/о 8/0
[Ac As]
+19.4 +10.7 57 +21 +21 комфорт 1018.1 960.0 +24.1
18 15.09 В 4 н/о 8/0
[Ac As]
+17.5 +7.7 53 +17 +17 1018.7 960.1 +24.1
21 15.09 В 3 н/о 5/0
[Ac trans Ci fib]
+16.9 +6.4 50 +17 +17 1018.7 960.0
00 16.09 В 2 н/о ясно +14.2 +6.2 59 +14 +14 1019.4 960.2
03 16.09 В 4 50 км ясно +16.8 +4.8 45 +16 +18 1019.7 960.9
06 16.09 штиль 0 50 км ясно +24.4 +5.6 30 +24 +40 комфорт 1017.9 960.6 +13.7
09 16.09 С 4 50 км 3/3 1000 м
[Cu hum]
+25.2 +2.9 23 +24 +29 комфорт 1017.5 960.4
12 16.09 СЗ 2 50 км 9/9 600 м
[Sc]
+23.9 +3.8 27 +23 +24 комфорт 1017.1 959.8
15 16.09 штиль 0 н/о ясно +19.1 +8.8 51 +20 +20 1018.2 960.0
18 16.09 В 1 н/о ясно +14.8 +8.2 65 +15 +15 1019.7 960.5 +25.9
00 17.09 В 3 н/о ясно +12.9 +4.3 56 +12 +12 1020.2 960.6
03 17.09 В 5 50 км ясно +16.7 +3.2 40 +16 +17 1020.8 961.8
09 17.09 З 4 50 км ясно +26.7 +1.9 20 +25 +32 комфорт 1017.1 960.3

 

Местоположение метеостанции Алмалык (Ташкентская область, Узбекистан): широта 40.09 долгота 69.65 высота над уровнем моря 507 м.

В архиве по умолчанию представлена погода в Алмалыке за последнюю неделю. Архивные данные за месяц целиком и за предыдущие месяцы, начиная с января 2011 года, Вы можете получить, выбрав интересующий диапазон дат из раскрывающегося списка и нажав кнопку "Ввод!".


*Определитесь, кто Вы:
робот инопланетянин человек

Внимание! Время в таблицах - всемирное. Для получения местного времени необходимо прибавить поправку, которая равна 5 ч.

Смотрите также архив погоды в соседних городах и на ближайших метеорологических станциях:

Погода в Худжанде (Таджикистан) (16 км)
Погода в Кайракумском (Таджикистан) (27 км)
Погода в Исфане (Баткенская область, Киргизия) (31 км)
Погода в Бекабаде (Ташкентская область, Узбекистан) (35 км)
Погода в Истаравшане (Таджикистан) (61 км)
Погода в Янгиере (Сырдарьинская область, Узбекистан) (71 км)
Погода в Мадрушкате (Таджикистан) (78 км)
Погода в Туябугузе (Ташкентская область, Узбекистан) (99 км)
Погода в Шахристанском (Таджикистан) (104 км)
Погода в Ангрене (Ташкентская область, Узбекистан) (111 км)

Пояснения к столбцам:

Ветер - указаны скорость ветра в м/с - средняя за 10 мин, порывы в срок и между сроками (в фигурных скобках) и направление, откуда дует ветер: С - северный, СВ - северо-восточный, В - восточный, ЮВ - юго-восточный, Ю - южный, ЮЗ - юго-западный, З - западный, СЗ - северо-западный.
Видимость - горизонтальная дальность видимости в метрах или километрах. При видимости от 1 до 10 км при отсутствии осадков обычно наблюдается дымка, при ухудшении видимости до 1 км и менее - туман. В сухую погоду видимость может ухудшаться дымом, пылью или мглою.
Явления - указаны атмосферные явления, наблюдавшиеся в срок или в последний час перед сроком; фигурными скобками обозначены явления, наблюдавшиеся между сроками (за 1-3 часа до срока); квадратными скобками обозначены град или гололедные отложения с указанием их диаметра в мм.
Облачность - указаны через наклонную черту общая и нижняя облачность в баллах и высота нижней границы облаков в метрах; квадратными скобками обозначены формы облаков: Ci - перистые, Cs - перисто-слоистые, Cc - перисто-кучевые, Ac - высококучевые, As - высокослоистые, Sc - слоисто-кучевые, Ns - слоисто-дождевые, Cu - кучевые, Cb - кучево-дождевые. Подробнее классификацию облаков см. в Атласе облаков (PDF).
T - Температура воздуха - температура, измеренная на высоте 2 м над землей.
Td - Температура точки росы - температура, при понижении до которой содержащийся в воздухе водяной пар достигнет насыщения.
f - Относительная влажность воздуха - влажноcть воздуха, измеренная на высоте 2 м над землей.
Te - Эффективная температура - температура, которую ощущает одетый по сезону человек в тени. Характеристика душности погоды. При расчете учитывается влияние влажности воздуха и скорости ветра на теплоощущения человека.
Tes - Эффективная температура на солнце - температура, которую ощущает человек, с поправкой на солнечный нагрев. Характеристика знойности погоды. Зависит от высоты солнца над горизонтом, облачности и скорости ветра. Ночью, в пасмурную погоду, а также при ветре 12 м/с и более поправка равна нулю.
P - Атмосферное давление - приведенное к уровню моря атмосферное давление.
Po - Атмосферное давление - измеренное на уровне метеостанции атмосферное давление.
Tmin - Минимальная температура - минимум температуры воздуха на высоте 2 м над землей.
Tmax - Максимальная температура - максимум температуры воздуха на высоте 2 м над землей.
R - Количество осадков - Количество выпавших осадков за период времени, мм. При наведении курсора мыши на число - период времени, за который выпало указанное количество осадков.
R24 - Количество осадков - Количество выпавших осадков за 24 часа, мм.
S - Снежный покров - Высота снежного покрова, см. При наведении курсора мыши на число - состояние снежного покрова и степень покрытия местности в баллах.